sat.trackr.live / text

‹ back to catalog

XM-5

NORAD 37185 · 2010-053A

PAYLOAD ACTIVE UNKNOWN

§ Identity

Operator
Country
US
Launch date
2010-10-14
Launch site
TYMSC
Launch vehicle
Mass (kg)
RCS (m²)
12.62

Purposes: comms

External: N2YO · Heavens-Above · Gunter

§ Orbital elements

Epoch: 2026-05-25T03:42:38.615040Z

Period
1,436.11 min
Inclination
0.0628°
Eccentricity
0.0003347
Mean motion
1.00271049 rev/d
Perigee alt
35,772.7 km
Apogee alt
35,800.9 km
Semi-major
42,164.9 km
B*
0.0000e+0
RAAN
273.7257°
Arg perigee
278.8755°
Mean anomaly
350.6118°
Rev number
5,725

§ Raw data

XM-51 37185U 10053A   26145.15461360 -.00000025  00000+0  00000+0 0  99932 37185   0.0628 273.7257 0003347 278.8755 350.6118  1.00271049 57251

JSON: /api/v1/satellites/37185 · /tle

For live sub-satellite position, see the globe view (requires WebGL).

§ Visibility from observer

Set your observer location to see the next 7 days of passes ≥ 10°. The values pass through the URL so the page stays shareable.

No JS? Fill the form by hand. The geolocation button needs JavaScript.